Weather History for KFRG - February, 2013

Change the Weather History Date:

Sunday, February 3, 2013

  Actual Average Record
Temperature  
Mean Temperature 26 °F -  
Max Temperature 30 °F 38 °F 61 °F (2006)
Min Temperature 21 °F 24 °F 12 °F (2015)
Degree Days  
Heating Degree Days 40    
Moisture  
Dew Point 19 °F    
Average Humidity 78    
Maximum Humidity 93    
Minimum Humidity 58    
Precipitation  
Precipitation 0.00 in - - ()
Sea Level Pressure  
Sea Level Pressure 29.91 in    
Wind  
Wind Speed 2 mph (North)    
Max Wind Speed 8 mph    
Max Gust Speed -    
Visibility 7 miles    
Events Snow    
Averages and records for this station are not official NWS values.
T = Trace of Precipitation, MM = Missing Value Source: NWS Daily Summary

Daily Weather History Graph

Daily Weather History Graph

Search for Another Location

Airport or City:

Trip Planner

Search our weather history database for the weather conditions in past years. The results will help you decide how hot, cold, wet, or windy it might be!

Date:

Astronomy

Feb. 03, 2013 Rise Set
Actual Time 7:01 AM EST 5:14 PM EST
Civil Twilight 6:32 AM EST 5:42 PM EST
Nautical Twilight 6:00 AM EST 6:15 PM EST
Astronomical Twilight 5:27 AM EST 6:47 PM EST
Moon 12:26 AM EST (2/3) 10:49 AM EST (2/3)
Length of Visible Light 11h 10m
Length of Day
10h 12m
Waning Gibbous, 49% of the Moon is Illuminated
Feb 3
Waning Gibbous
Feb 10
New
Feb 17
First Quarter
Feb 25
Full
Mar 4
Last Quarter

Hourly Weather History & Observations

Time (EST) Temp. Windchill Dew Point Humidity Pressure Visibility Wind Dir Wind Speed Gust Speed Precip Events Conditions
12:20 AM 24.8 °F - 21.2 °F 86% 30.06 in 2.5 mi Calm Calm - 0.00 in Snow Light Snow
12:34 AM 24.8 °F - 21.2 °F 86% 30.05 in 4.0 mi Calm Calm - 0.00 in Snow Light Snow
12:53 AM 24.1 °F - 21.0 °F 88% 30.05 in 5.0 mi Calm Calm - 0.00 in Snow Light Snow
1:40 AM 23.0 °F - 21.2 °F 93% 30.03 in 2.5 mi Calm Calm - 0.00 in Snow Light Snow
1:53 AM 24.1 °F - 21.9 °F 91% 30.04 in 2.5 mi Calm Calm - 0.00 in Snow Light Snow
2:05 AM 23.0 °F - 21.2 °F 93% 30.02 in 3.0 mi Calm Calm - 0.00 in Snow Light Snow
2:53 AM 23.0 °F - 21.0 °F 92% 30.01 in 4.0 mi Calm Calm - 0.00 in Snow Light Snow
3:53 AM 24.1 °F 19.7 °F 21.0 °F 88% 29.98 in 2.0 mi ENE 3.5 mph - 0.00 in Snow Light Snow
4:10 AM 23.0 °F 17.0 °F 21.2 °F 93% 29.97 in 3.0 mi ENE 4.6 mph - 0.00 in Snow Light Snow
4:53 AM 21.9 °F 15.7 °F 19.9 °F 92% 29.95 in 4.0 mi NNE 4.6 mph - 0.00 in   Overcast
5:53 AM 21.0 °F - 19.0 °F 92% 29.95 in 7.0 mi Calm Calm - N/A   Clear
6:24 AM 21.2 °F - 19.4 °F 93% 29.95 in 6.0 mi Calm Calm - N/A   Mostly Cloudy
6:40 AM 21.2 °F - 19.4 °F 93% 29.96 in 7.0 mi Calm Calm - N/A   Overcast
6:49 AM 23.0 °F - 21.2 °F 93% 29.96 in 7.0 mi Calm Calm - N/A   Overcast
6:53 AM 23.0 °F - 19.9 °F 88% 29.97 in 7.0 mi Calm Calm - N/A   Overcast
7:53 AM 23.0 °F 18.4 °F 21.0 °F 92% 29.97 in 5.0 mi NE 3.5 mph - N/A   Overcast
8:53 AM 25.0 °F 18.1 °F 21.0 °F 85% 29.96 in 9.0 mi NE 5.8 mph - N/A   Overcast
9:27 AM 26.6 °F 20.0 °F 19.4 °F 74% 29.94 in 10.0 mi ENE 5.8 mph - N/A   Overcast
9:53 AM 26.1 °F 21.9 °F 19.9 °F 78% 29.93 in 10.0 mi ENE 3.5 mph - N/A   Overcast
10:53 AM 28.0 °F 22.8 °F 18.0 °F 66% 29.91 in 10.0 mi NE 4.6 mph - N/A   Overcast
11:53 AM 28.9 °F 22.8 °F 19.9 °F 69% 29.87 in 10.0 mi NNE 5.8 mph - N/A   Clear
12:48 PM 28.4 °F 22.2 °F 19.4 °F 69% 29.84 in 10.0 mi NNE 5.8 mph - N/A   Mostly Cloudy
12:53 PM 28.9 °F 21.9 °F 19.9 °F 69% 29.84 in 10.0 mi North 6.9 mph - N/A   Mostly Cloudy
1:53 PM 28.9 °F 21.9 °F 19.9 °F 69% 29.81 in 10.0 mi North 6.9 mph - N/A   Mostly Cloudy
2:30 PM 30.2 °F 22.6 °F 19.4 °F 64% 29.80 in 10.0 mi WNW 8.1 mph - N/A   Mostly Cloudy
2:53 PM 30.0 °F 23.2 °F 18.0 °F 61% 29.80 in 10.0 mi NNW 6.9 mph - N/A   Clear
3:53 PM 30.0 °F 23.2 °F 17.1 °F 59% 29.80 in 10.0 mi NW 6.9 mph - N/A   Clear
4:53 PM 28.9 °F 22.8 °F 16.0 °F 58% 29.80 in 10.0 mi NW 5.8 mph - N/A   Clear
5:53 PM 28.0 °F 22.8 °F 16.0 °F 61% 29.80 in 10.0 mi NW 4.6 mph - N/A   Clear
6:53 PM 28.0 °F 22.8 °F 16.0 °F 61% 29.81 in 10.0 mi NW 4.6 mph - N/A   Clear
7:53 PM 26.1 °F 21.9 °F 16.0 °F 66% 29.81 in 10.0 mi WNW 3.5 mph - N/A   Clear
8:53 PM 26.1 °F 21.9 °F 16.0 °F 66% 29.83 in 10.0 mi NW 3.5 mph - N/A   Clear
9:53 PM 25.0 °F 20.7 °F 15.1 °F 66% 29.82 in 10.0 mi WNW 3.5 mph - N/A   Clear
10:53 PM 25.0 °F 20.7 °F 15.1 °F 66% 29.82 in 10.0 mi West 3.5 mph - N/A   Partly Cloudy
11:53 PM 25.0 °F 19.3 °F 17.1 °F 72% 29.81 in 9.0 mi WSW 4.6 mph - N/A   Overcast